Regional Weather Roundup
Issued by NWS

Home | Current Version | Previous Version | Text Only | Print | Product List | Glossary Off
Versions: 1 2 3 4 5 6 7 8 9 10 11 12 13 14 15 16 17 18 19 20 21 22 23 24 25 26 27 28 29 30 31 32 33 34 35 36 37 38 39 40 41 42 43 44 45 46 47 48 49 50

744
ASUS45 KPSR 221110
RWRAZ

ARIZONA HOURLY REGIONAL WEATHER ROUNDUP
NATIONAL WEATHER SERVICE PHOENIX AZ
400 AM MST SUN OCT 22 2017

NOTE: FAIR INDICATES FEW OR NO CLOUDS BELOW 12,000 FEET WITH NO
SIGNIFICANT WEATHER AND/OR OBSTRUCTIONS TO VISIBILITY.

AZZ001>003-036-221200-
NORTHWEST ARIZONA

CITY           SKY/WX    TMP DP  RH WIND       PRES   REMARKS
BULLHEAD CITY  CLEAR     70  16  12 N21       30.15S
KINGMAN        CLEAR     46  14  27 E6        30.28S
$$

AZZ004>008-015-016-018-221200-
NORTH CENTRAL ARIZONA

CITY           SKY/WX    TMP DP  RH WIND       PRES   REMARKS
GRAND CANYON   MOCLDY    28   7  41 NE5       30.41S WCI  23
WILLIAMS       PTCLDY    37   9  30 SE10      30.38S WCI  30
PRESCOTT       PTCLDY    40  12  32 S5        30.32R
FLAGSTAFF      PTCLDY    27  11  51 CALM      30.41R
PAYSON         CLEAR     52   7  16 NE8       30.31S
PAGE           CLEAR     46  17  31 W3        30.34R
$$

AZZ009>014-017-221200-
NORTHEAST ARIZONA

CITY           SKY/WX    TMP DP  RH WIND       PRES   REMARKS
WINSLOW        CLOUDY    29   2  31 CALM      30.38R
SAINT JOHNS    PTCLDY    33  12  41 CALM      30.37R
WINDOW ROCK    CLEAR     26   2  35 CALM      30.41S
SHOW LOW       PTCLDY    34   9  35 CALM      30.38S
$$

AZZ540-542>544-546-548-221200-
GREATER PHOENIX AREA

CITY           SKY/WX    TMP DP  RH WIND       PRES   REMARKS
PHOENIX        CLEAR     65  31  28 CALM      30.10R
BUCKEYE        PTCLDY    59   9  13 N8        30.11S
LUKE AFB       CLEAR     60  26  27 NW9       30.10R
DEER VALLEY    CLEAR     60  30  32 CALM      30.11S
SCOTTSDALE     CLEAR     61  38  42 CALM      30.12S
MESA-GATEWAY   CLEAR     57  36  44 E5        30.12S
$$

AZZ539-553-221200-
SOUTHWEST MARICOPA COUNTY AND PINAL COUNTY

CITY           SKY/WX    TMP DP  RH WIND       PRES   REMARKS
CASA GRANDE    NOT AVBL
$$

AZZ503-504-507>509-221200-
SOUTHEAST ARIZONA

CITY           SKY/WX    TMP DP  RH WIND       PRES   REMARKS
TUCSON         CLEAR     58  36  43 SE7       30.18R
DAVIS-MONTHAN  CLEAR     56  36  48 S7        30.16R
NOGALES        CLEAR     47  34  60 CALM      30.21R
SIERRA VISTA   CLEAR     53  35  49 S5        30.26R
DOUGLAS        CLEAR     46  31  55 S3        30.24R
SAFFORD        CLEAR     51  23  33 N7        30.18R
$$

AZZ532-221200-
SOUTHWEST ARIZONA

CITY           SKY/WX    TMP DP  RH WIND       PRES   REMARKS
YUMA           CLEAR     68  16  13 N9        30.08S
$$

CAZ041-043-047-048-061-525>527-560>570-221200-
SOUTHERN CALIFORNIA

CITY           SKY/WX    TMP DP  RH WIND       PRES   REMARKS
DOWNTOWN L.A.  CLEAR     62  40  44 CALM      30.08S
L.A. AIRPORT   CLEAR     66  36  32 NE5       30.08F
SAN DIEGO      CLEAR     61  53  75 NW3       30.08F
BURBANK        CLEAR     59  32  36 CALM      30.10F
ONTARIO        CLEAR     58  39  49 N5        30.11F
RIVERSIDE      CLEAR     64  29  26 NE8       30.11F
PALM SPRINGS   CLEAR     66  20  17 NW8       30.14S
EL CENTRO NAS  CLEAR     60  23  24 W10       30.11S
IMPERIAL       CLEAR     59  29  31 W7        30.09S
BLYTHE         CLEAR     62  15  16 S7        30.13R
NEEDLES        CLEAR     68  13  12 W3        30.17S
$$

NVZ020-UTZ003-221200-
SOUTHERN NEVADA-UTAH

CITY           SKY/WX    TMP DP  RH WIND       PRES   REMARKS
LAS VEGAS      CLEAR     58  19  22 W7        30.25F
SALT LAKE CITY MOCLDY    48  26  42 SE9       30.34R
$$

NMZ009-TXZ055-221200-
NEW MEXICO-WEST TEXAS

CITY           SKY/WX    TMP DP  RH WIND       PRES   REMARKS
ALBUQUERQUE    CLOUDY    45   6  20 W6        30.36R
EL PASO        CLEAR     57  23  26 NE12      30.24R
$$


........................KEY........................
SKY/WX - SKY CONDITION/WEATHER
TMP    - TEMPERATURE IN FAHRENHEIT
DP     - DEW POINT IN FAHRENHEIT
RH     - RELATIVE HUMIDITY IN PERCENT
WIND   - DIRECTION AND SPEED IN MILES PER HOUR (MPH)
VRB    - VARIABLE WIND DIRECTION
PRES   - MEAN SEA LEVEL PRESSURE IN INCHES OF MERCURY
         F - FALLING PRESSURE   R - RISING PRESSURE
         S - STEADY PRESSURE
VSB    - VISIBILITY IN MILES
HX     - HEAT INDEX IN FAHRENHEIT
WCI    - WIND CHILL INDEX IN FAHRENHEIT
TC     - TEMPERATURE IN CELSIUS WHICH IS ALSO KNOWN AS
         TEMPERATURE IN CENTIGRADE
AFB    - AIR FORCE BASE
         LUKE AFB IS LUKE AIR FORCE BASE
         DAVIS-MONTHAN IS DAVIS-MONTHAN AIR FORCE BASE
NAS    - NAVAL AIR STATION
         EL CENTRO NAS IS EL CENTRO NAVAL AIR STATION
N/A    - NOT AVAILABLE





USA.gov is the U.S. government's official web portal to all federal, state and local government web resources and services.